GW6721 Weather Reports


time (UTC)temp
C
wind
direction
speed
KPH
gust
KPH
rain 1hr
cm
rain 24hr
cm
rain mn
cm
humidity
%
barometer
mb
20260505223130 26 255 1.6 1.6 0.00 0.00 0.00 34 1006.0
20260505222626 26 295 3.2 4.8 0.00 0.00 0.00 33 1005.9
20260505222123 26 262 1.6 3.2 0.00 0.00 0.00 35 1005.8
20260505221620 26 242 3.2 3.2 0.00 0.00 0.00 33 1005.9
20260505221116 27 290 3.2 3.2 0.00 0.00 0.00 36 1006.0
20260505220614 27 335 3.2 4.8 0.00 0.00 0.00 34 1006.0
20260505220111 27 338 6.4 6.4 0.00 0.00 0.00 32 1005.9
20260505215609 27 355 4.8 4.8 0.00 0.00 0.00 32 1006.0
20260505215107 27 6 1.6 3.2 0.00 0.00 0.00 35 1005.9
20260505214605 27 217 3.2 3.2 0.00 0.00 0.00 36 1005.9
20260505214101 27 281 3.2 3.2 0.00 0.00 0.00 37 1005.9
20260505213559 27 71 6.4 11.3 0.00 0.00 0.00 32 1005.8
20260505213055 27 120 3.2 3.2 0.00 0.00 0.00 33 1005.8
20260505212551 27 324 3.2 4.8 0.00 0.00 0.00 35 1005.9
20260505212049 27 333 9.7 11.3 0.00 0.00 0.00 32 1006.0
20260505211546 27 330 12.9 16.1 0.00 0.00 0.00 32 1005.9
20260505211043 27 345 1.6 1.6 0.00 0.00 0.00 33 1005.9
20260505210539 27 263 6.4 6.4 0.00 0.00 0.00 34 1005.9
20260505210037 28 298 4.8 9.7 0.00 0.00 0.00 32 1005.8
20260505205535 28 289 3.2 4.8 0.00 0.00 0.00 34 1005.7
20260505205032 28 302 6.4 6.4 0.00 0.00 0.00 32 1005.7
20260505204529 27 320 8.0 12.9 0.00 0.00 0.00 32 1005.9
20260505204026 27 358 3.2 3.2 0.00 0.00 0.00 34 1005.8
20260505203523 28 212 4.8 4.8 0.00 0.00 0.00 33 1005.7
20260505203020 27 263 1.6 1.6 0.00 0.00 0.00 33 1005.8
20260505202516 28 343 1.6 1.6 0.00 0.00 0.00 33 1006.0
20260505202012 28 291 3.2 3.2 0.00 0.00 0.00 32 1005.7
20260505201510 28 207 8.0 17.7 0.00 0.00 0.00 33 1005.8
20260505201007 28 285 6.4 6.4 0.00 0.00 0.00 33 1006.1
20260505200504 28 253 1.6 3.2 0.00 0.00 0.00 30 1005.9
20260505200000 28 319 6.4 9.7 0.00 0.00 0.00 30 1006.1
20260505195457 28 290 1.6 1.6 0.00 0.00 0.00 31 1006.0
20260505194955 27 326 4.8 4.8 0.00 0.00 0.00 33 1006.3
20260505194452 27 293 8.0 9.7 0.00 0.00 0.00 33 1006.1
20260505193952 28 55 4.8 6.4 0.00 0.00 0.00 32 1006.2
20260505193450 28 279 3.2 6.4 0.00 0.00 0.00 34 1006.4
20260505192947 28 14 9.7 12.9 0.00 0.00 0.00 31 1006.2
20260505192445 28 296 4.8 6.4 0.00 0.00 0.00 32 1006.2
20260505191942 28 67 4.8 6.4 0.00 0.00 0.00 32 1006.3
20260505191441 27 327 9.7 16.1 0.00 0.00 0.00 34 1006.3
20260505190937 27 285 9.7 14.5 0.00 0.00 0.00 34 1006.1
20260505190432 27 50 4.8 4.8 0.00 0.00 0.00 33 1006.4
20260505185928 27 0 4.8 6.4 0.00 0.00 0.00 32 1006.5
20260505185426 27 122 3.2 4.8 0.00 0.00 0.00 35 1006.5
20260505184922 28 230 6.4 9.7 0.00 0.00 0.00 32 1006.6
20260505184419 28 196 9.7 11.3 0.00 0.00 0.00 31 1006.6
20260505183916 28 268 6.4 9.7 0.00 0.00 0.00 31 1006.9
20260505183413 28 27 8.0 9.7 0.00 0.00 0.00 31 1006.8
20260505182909 28 254 4.8 6.4 0.00 0.00 0.00 31 1007.2
20260505182406 28 255 4.8 4.8 0.00 0.00 0.00 32 1007.0
20260505181902 27 302 1.6 3.2 0.00 0.00 0.00 34 1007.0
20260505181400 27 352 3.2 4.8 0.00 0.00 0.00 33 1007.1
20260505180856 27 37 9.7 12.9 0.00 0.00 0.00 31 1007.3
20260505180353 28 260 4.8 6.4 0.00 0.00 0.00 31 1007.1
20260505175850 28 334 3.2 3.2 0.00 0.00 0.00 33 1007.0
20260505175346 27 296 1.6 1.6 0.00 0.00 0.00 37 1007.2
20260505174843 28 263 3.2 4.8 0.00 0.00 0.00 35 1007.3
20260505174340 28 253 1.6 1.6 0.00 0.00 0.00 32 1007.1
20260505173836 28 329 1.6 1.6 0.00 0.00 0.00 31 1007.4
20260505173332 27 327 3.2 4.8 0.00 0.00 0.00 33 1007.1
20260505172830 27 352 4.8 9.7 0.00 0.00 0.00 32 1007.4
20260505172327 27 139 6.4 6.4 0.00 0.00 0.00 33 1007.5
20260505171827 27 270 3.2 3.2 0.00 0.00 0.00 33 1007.5
20260505171324 27 303 3.2 9.7 0.00 0.00 0.00 33 1007.5
20260505170821 26 283 3.2 3.2 0.00 0.00 0.00 36 1007.8
20260505170318 26 336 4.8 4.8 0.00 0.00 0.00 38 1007.7
20260505165813 26 318 6.4 11.3 0.00 0.00 0.00 35 1007.8
20260505165309 26 308 8.0 9.7 0.00 0.00 0.00 36 1007.9
20260505164804 27 315 8.0 9.7 0.00 0.00 0.00 36 1008.1
20260505164302 27 289 6.4 9.7 0.00 0.00 0.00 34 1008.1
20260505163800 27 301 4.8 4.8 0.00 0.00 0.00 36 1008.3
20260505163258 27 191 6.4 11.3 0.00 0.00 0.00 38 1008.5
20260505162755 27 330 3.2 4.8 0.00 0.00 0.00 36 1008.5
20260505162252 27 353 6.4 12.9 0.00 0.00 0.00 38 1008.6
20260505161749 26 246 4.8 4.8 0.00 0.00 0.00 37 1008.6
20260505161247 26 342 6.4 6.4 0.00 0.00 0.00 37 1008.5
20260505160744 26 224 6.4 9.7 0.00 0.00 0.00 37 1008.5
20260505160242 26 287 3.2 4.8 0.00 0.00 0.00 38 1008.5
20260505153221 26 324 6.4 9.7 0.00 0.00 0.00 39 1008.6
20260505152718 25 134 4.8 4.8 0.00 0.00 0.00 40 1008.3
20260505152214 25 353 4.8 4.8 0.00 0.00 0.00 41 1008.5
20260505151709 25 48 1.6 1.6 0.00 0.00 0.00 42 1008.8
20260505151206 25 240 3.2 3.2 0.00 0.00 0.00 42 1008.8
20260505150702 25 286 3.2 3.2 0.00 0.00 0.00 43 1008.9
20260505150200 25 340 8.0 9.7 0.00 0.00 0.00 41 1008.9
20260505140633 22 57 3.2 3.2 0.00 0.00 0.00 51 1009.2
20260505140130 22 66 1.6 1.6 0.00 0.00 0.00 53 1009.2
20260505124543 19 195 0.0 1.6 0.00 0.00 0.00 58 1009.7
20260505124039 18 116 0.0 0.0 0.00 0.00 0.00 60 1009.8
20260505123536 18 59 0.0 1.6 0.00 0.00 0.00 58 1009.7
20260505123032 19 116 1.6 1.6 0.00 0.00 0.00 59 1009.8
20260505122529 18 70 0.0 1.6 0.00 0.00 0.00 58 1009.8
20260505122026 18 59 0.0 0.0 0.00 0.00 0.00 59 1009.5
20260505121523 17 87 0.0 0.0 0.00 0.00 0.00 62 1009.7
20260505121019 16 292 3.2 4.8 0.00 0.00 0.00 67 1009.7
20260505120516 16 153 0.0 0.0 0.00 0.00 0.00 74 1009.6
20260505120011 15 127 1.6 1.6 0.00 0.00 0.00 74 1009.5
20260505115506 15 102 1.6 1.6 0.00 0.00 0.00 78 1009.6
20260505115004 13 47 0.0 0.0 0.00 0.00 0.00 80 1009.6
20260505114501 13 186 0.0 1.6 0.00 0.00 0.00 83 1009.5
20260505113957 12 193 0.0 1.6 0.00 0.00 0.00 83 1009.7
20260505113453 12 214 0.0 0.0 0.00 0.00 0.00 83 1009.5
20260505112949 12 147 3.2 3.2 0.00 0.00 0.00 83 1009.4
20260505112447 12 223 0.0 1.6 0.00 0.00 0.00 85 1009.4
20260505111944 12 147 0.0 0.0 0.00 0.00 0.00 85 1009.2
20260505111443 11 173 0.0 0.0 0.00 0.00 0.00 87 1009.2
20260505110940 11 343 0.0 0.0 0.00 0.00 0.00 90 1008.9
20260505110437 10 126 1.6 1.6 0.00 0.00 0.00 92 1009.1
20260505101909 8 184 1.6 1.6 0.00 0.00 0.00 95 1009.0
20260505101409 8 195 0.0 0.0 0.00 0.00 0.00 94 1009.1
20260505100905 7 208 0.0 0.0 0.00 0.00 0.00 94 1008.9
20260505100401 8 90 0.0 0.0 0.00 0.00 0.00 94 1008.9
20260505095857 8 193 0.0 0.0 0.00 0.00 0.00 94 1008.6
20260505095355 8 101 0.0 0.0 0.00 0.00 0.00 94 1008.6
20260505094851 8 321 0.0 0.0 0.00 0.00 0.00 94 1008.6
20260505094348 8 174 0.0 0.0 0.00 0.00 0.00 94 1008.5
20260505093843 8 280 0.0 0.0 0.00 0.00 0.00 94 1008.3
20260505093341 8 273 0.0 0.0 0.00 0.00 0.00 93 1008.4
20260505092838 8 340 0.0 0.0 0.00 0.00 0.00 93 1008.4
20260505092336 8 335 0.0 0.0 0.00 0.00 0.00 93 1008.4
20260505091833 8 215 0.0 0.0 0.00 0.00 0.00 93 1008.4
20260505091331 8 249 0.0 0.0 0.00 0.00 0.00 92 1008.4
20260505090829 8 359 0.0 0.0 0.00 0.00 0.00 92 1008.6
20260505090327 9 276 0.0 0.0 0.00 0.00 0.00 92 1008.3
20260505085824 9 277 0.0 0.0 0.00 0.00 0.00 92 1008.8
20260505085322 9 155 0.0 0.0 0.00 0.00 0.00 92 1008.6
20260505084819 9 287 0.0 0.0 0.00 0.00 0.00 92 1008.4
20260505084318 9 57 0.0 0.0 0.00 0.00 0.00 92 1008.5
20260505083814 9 190 0.0 0.0 0.00 0.00 0.00 92 1008.4
20260505083312 9 278 0.0 0.0 0.00 0.00 0.00 91 1008.4
20260505082808 9 186 0.0 0.0 0.00 0.00 0.00 90 1008.4
20260505082305 10 186 0.0 0.0 0.00 0.00 0.00 90 1008.5
20260505081801 10 299 0.0 0.0 0.00 0.00 0.00 90 1008.4
20260505081258 10 164 0.0 0.0 0.00 0.00 0.00 91 1008.2
20260505080754 10 182 0.0 0.0 0.00 0.00 0.00 90 1008.3
20260505080250 10 70 0.0 0.0 0.00 0.00 0.00 89 1008.2
20260505075746 10 70 0.0 0.0 0.00 0.00 0.00 89 1008.1
20260505075244 10 80 0.0 0.0 0.00 0.00 0.00 88 1008.2
20260505074741 10 117 0.0 0.0 0.00 0.00 0.00 88 1008.1
20260505074238 10 72 0.0 0.0 0.00 0.00 0.00 87 1008.1
20260505073735 10 72 0.0 0.0 0.00 0.00 0.00 87 1008.1
20260505073233 11 108 0.0 0.0 0.00 0.00 0.00 87 1008.0
20260505072729 11 174 0.0 0.0 0.00 0.00 0.00 86 1007.9
20260505072225 11 299 0.0 0.0 0.00 0.00 0.00 85 1008.0
20260505071721 11 4 0.0 0.0 0.00 0.00 0.00 84 1008.0
20260505071219 11 184 0.0 0.0 0.00 0.00 0.00 84 1007.8
20260505070716 11 268 0.0 0.0 0.00 0.00 0.00 82 1007.8
20260505070212 12 181 0.0 0.0 0.00 0.00 0.00 82 1007.8
20260505065708 12 231 0.0 0.0 0.00 0.00 0.00 81 1008.0
20260505065205 12 213 0.0 0.0 0.00 0.00 0.00 81 1007.9
20260505064702 12 297 0.0 0.0 0.00 0.00 0.00 80 1008.1
20260505064200 12 297 0.0 0.0 0.00 0.00 0.00 80 1008.1
20260505063657 12 223 0.0 0.0 0.00 0.00 0.00 78 1008.2
20260505063153 12 197 0.0 0.0 0.00 0.00 0.00 79 1008.0
20260505062649 12 178 0.0 0.0 0.00 0.00 0.00 79 1008.1
20260505062147 12 311 0.0 0.0 0.00 0.00 0.00 78 1008.1
20260505061644 13 269 0.0 0.0 0.00 0.00 0.00 76 1008.3
20260505061142 12 187 0.0 0.0 0.00 0.00 0.00 76 1008.1
20260505060639 12 257 0.0 0.0 0.00 0.00 0.00 77 1008.2
20260505060136 12 275 0.0 0.0 0.00 0.00 0.00 77 1008.1
20260505055631 13 188 0.0 0.0 0.00 0.00 0.00 78 1008.4
20260505055128 13 187 0.0 0.0 0.00 0.00 0.00 77 1008.1
20260505054626 13 221 0.0 0.0 0.00 0.00 0.00 78 1008.3
20260505054124 13 190 0.0 0.0 0.00 0.00 0.00 76 1008.3
20260505053621 13 263 0.0 0.0 0.00 0.00 0.00 75 1008.3
20260505053117 13 264 0.0 0.0 0.00 0.00 0.00 75 1008.3
20260505052614 13 290 0.0 0.0 0.00 0.00 0.00 75 1008.2
20260505052112 13 299 0.0 0.0 0.00 0.00 0.00 74 1008.1
20260505051608 13 156 0.0 0.0 0.00 0.00 0.00 73 1008.3
20260505051106 13 229 0.0 0.0 0.00 0.00 0.00 71 1008.4
20260505050604 14 66 0.0 0.0 0.00 0.00 0.00 74 1008.3
20260505041532 15 197 0.0 0.0 0.00 0.00 0.00 67 1008.1
20260505041029 15 253 0.0 0.0 0.00 0.00 0.00 66 1008.0
20260505040526 15 225 0.0 0.0 0.00 0.00 0.00 66 1007.9
20260505040024 15 153 0.0 0.0 0.00 0.00 0.00 65 1007.7
20260505035519 15 280 0.0 0.0 0.00 0.00 0.00 62 1007.7
20260505035016 16 171 1.6 3.2 0.00 0.00 0.00 61 1007.6
20260505034512 16 186 1.6 1.6 0.00 0.00 0.00 61 1007.7
20260505034010 15 219 0.0 0.0 0.00 0.00 0.00 60 1007.7
20260505033507 15 194 0.0 0.0 0.00 0.00 0.00 61 1007.7
20260505033005 15 181 0.0 1.6 0.00 0.00 0.00 62 1007.7
20260505032502 16 190 0.0 0.0 0.00 0.00 0.00 60 1007.7
20260505031958 16 182 1.6 1.6 0.00 0.00 0.00 59 1007.7
20260505031455 16 183 3.2 3.2 0.00 0.00 0.00 59 1007.7
20260505030952 16 206 0.0 0.0 0.00 0.00 0.00 58 1007.8
20260505030448 16 173 1.6 3.2 0.00 0.00 0.00 57 1007.8
20260505025943 16 178 0.0 0.0 0.00 0.00 0.00 56 1007.8
20260505025441 16 230 0.0 0.0 0.00 0.00 0.00 58 1007.9
20260505024940 16 234 0.0 0.0 0.00 0.00 0.00 59 1007.9
20260505024437 15 58 0.0 1.6 0.00 0.00 0.00 60 1007.8
20260505023934 15 199 1.6 1.6 0.00 0.00 0.00 63 1007.7
20260505023431 15 212 1.6 1.6 0.00 0.00 0.00 65 1007.6
20260505022928 15 273 1.6 1.6 0.00 0.00 0.00 65 1007.6
20260505022426 15 143 0.0 0.0 0.00 0.00 0.00 64 1007.4
20260505021922 14 143 0.0 1.6 0.00 0.00 0.00 64 1007.6
20260505021419 14 143 0.0 0.0 0.00 0.00 0.00 69 1007.7
20260505020914 15 280 0.0 0.0 0.00 0.00 0.00 68 1007.6
20260505020410 15 191 1.6 1.6 0.00 0.00 0.00 67 1007.7
20260505015908 15 303 1.6 1.6 0.00 0.00 0.00 67 1007.9
20260505015405 15 169 0.0 1.6 0.00 0.00 0.00 68 1007.8
20260505014902 15 13 0.0 0.0 0.00 0.00 0.00 67 1007.7
20260505014358 15 190 0.0 0.0 0.00 0.00 0.00 66 1007.8
20260505013855 15 145 1.6 1.6 0.00 0.00 0.00 61 1007.6
20260505013352 15 183 0.0 0.0 0.00 0.00 0.00 60 1007.8
20260505012851 15 231 0.0 0.0 0.00 0.00 0.00 63 1007.7
20260505012348 15 242 0.0 0.0 0.00 0.00 0.00 59 1007.6
20260505011844 15 191 0.0 0.0 0.00 0.00 0.00 59 1007.5
20260505011341 16 153 3.2 3.2 0.00 0.00 0.00 61 1007.6
20260505010837 16 147 0.0 1.6 0.00 0.00 0.00 61 1007.6
20260505010333 16 250 0.0 0.0 0.00 0.00 0.00 57 1007.6
20260505005830 16 191 0.0 0.0 0.00 0.00 0.00 58 1007.5
20260505005326 16 186 0.0 0.0 0.00 0.00 0.00 55 1007.7
20260505004824 17 164 0.0 0.0 0.00 0.00 0.00 54 1007.4
20260505004320 17 164 0.0 0.0 0.00 0.00 0.00 54 1007.4
20260505003818 17 198 1.6 1.6 0.00 0.00 0.00 53 1007.3
20260505003315 17 190 0.0 0.0 0.00 0.00 0.00 52 1007.2
20260505002811 17 177 0.0 0.0 0.00 0.00 0.00 52 1007.1
20260505002308 18 199 0.0 0.0 0.00 0.00 0.00 51 1007.2
20260505001806 18 331 0.0 0.0 0.00 0.00 0.00 48 1007.1
20260505001303 18 203 1.6 1.6 0.00 0.00 0.00 47 1007.1
20260505000800 20 252 0.0 0.0 0.00 0.00 0.00 46 1006.9
20260505000258 20 38 3.2 3.2 0.00 0.00 0.00 45 1006.9
20260504235754 20 162 1.6 3.2 0.00 0.00 0.00 46 1006.7
20260504235250 20 354 3.2 3.2 0.00 0.00 0.00 42 1007.0
20260504234748 21 209 0.0 1.6 0.00 0.00 0.00 41 1006.8
20260504234245 21 1 9.7 11.3 0.00 0.00 0.00 41 1006.7
20260504233741 21 223 1.6 1.6 0.00 0.00 0.00 40 1006.8
20260504233237 21 252 0.0 0.0 0.00 0.00 0.00 40 1006.7
20260504232734 21 153 3.2 3.2 0.00 0.00 0.00 40 1006.7
20260504232231 22 313 1.6 1.6 0.00 0.00 0.00 40 1006.7
20260504231728 22 169 1.6 3.2 0.00 0.00 0.00 38 1006.8
20260504231224 22 54 3.2 4.8 0.00 0.00 0.00 37 1006.7
20260504230720 22 20 6.4 9.7 0.00 0.00 0.00 37 1006.6
20260504230219 22 334 1.6 1.6 0.00 0.00 0.00 38 1006.8
20260504225718 22 28 3.2 4.8 0.00 0.00 0.00 39 1006.6
20260504225214 22 268 1.6 1.6 0.00 0.00 0.00 39 1006.8
20260504224711 23 175 3.2 3.2 0.00 0.00 0.00 38 1006.5
20260504224208 23 323 0.0 1.6 0.00 0.00 0.00 35 1006.7
20260504223704 23 286 3.2 3.2 0.00 0.00 0.00 36 1006.8